Погода в Бирзаи

Погода в Бирзаи : погода сейчас, прогноз погоды и архив. Всё, что Вы хотите узнать о погоде в Бирзаи!

Поиск расширенной информации на нашем сайте:

Другие новости

Новости СМИ2

Главная страница сайта

Новости сайта

02.10.2013

Напоминаем, что на нашем новом сайте вы можете получить высокодетализированные прогнозы погоды по пунктам России, СНГ и мира (включающие важные для авиации метеовеличины, такие как направление и скорость ветра, видимость, явления погоды, количество и форма облачности, нижняя и верхняя граница облачности), а также ознакомиться с разнообразными материалами по авиационной метеорологии и подборкой полезных ссылок на эту тему.

Сайт Метеоцентр.Азия посвящён разработке технологий оптимизации авиаметеорологического обслуживания, включая проектирование и перспективное создание нескольких автоматизированных авиаметеорологических систем:
- система выпуска высокодетальных прогностических карт явлений погоды для нижнего воздушного пространства по России и ближнему зарубежью;
- система верификации прогнозов TAF (выпускаемых синоптиками официальных АМСГ РФ и ближнего зарубежья) и AUTOTAF (выпускаемых сайтом Метеоцентр.Азия) - выявление ошибок, онлайн-сопоставление с фактической погодой METAR, автоматическое внесение коррективов в прогнозы при резком отклонении фактической погоды от прогноза, подсчёт оправдываемости прогнозов по элементам и в целом;
- система обработки, анализа и отображения авиаметеорологической информации для применения провайдерами метеорологической информации.


Погода в Бирзаи - сегодня

Время (UTC), дата Ветер
(°,м/с) 
Видим.   Явления Облачность Т
(°С)
Тd
(°С)
f(%) Тe
(°С)
Pmin
(гПа)
dP
(гПа)
Po
(мм)
O2
(г/м3)
Тmin Tmax R s Состояние
почвы
03 26.04.17 210 (ЮЗ) 3-5{06}  19000 м    8/3 300 м средняя 
[Sc|Ac As]
+0.1 -0.8 94 -2  1004.4  0.6  747  300           
06 26.04.17 210 (ЮЗ) 5-9{10}  19000 м    9/3 300 м верхняя 
[St|Cs]
+3.6 +1 83 +1  1004.9  0.6  748  297  +0      влажная 
09 26.04.17 230 (ЮЗ) 6-13{13}  20000 м    9/8 1500 м верхняя 
[Cu Sc|Ci sp]
+6.2 +2 74 +4  1006  1.2  749  294           
12 26.04.17 250 (З) 7-13{13}  19000 м  {ливн. осадки}  8/5 1000 м средняя, верхняя 
[Cu med, cong|Ac cuf|Ci sp]
+8.9 +0.4 55 +7  1007.9  1.9  750  293      0.0     
15 26.04.17 260 (З) 5-9{13}  19000 м  {ливн. осадки}  8/5 1500 м верхняя 
[Cu Sc|Ci fib]
+8.9 -1.9 47 +7  1009.4  1.5  751  293           
18 26.04.17 280 (З) 2-4{10}  19000 м  {ливн. осадки}  9/0 средняя, верхняя 
[Ac lent|Cs]
+6.5 -1.2 58 +6  1010.8  1.3  752  295    +9.1  0.0     
21 26.04.17 тихо () -2{04}  14000 м    ясно 
+1.7 -1.4 80 +2  1012.1  1.2  753  301           
00 27.04.17 тихо () -2{02}  20000 м    4/0 средняя, верхняя 
[Ac lent|Ci fib]
-0.6 -2.1 90 -1  1012.4  0.2  753  305           
03 27.04.17 220 (ЮЗ) 1-2{03}  19000 м    9/8 600 м средняя 
[Sc|Ac lent]
-0.8 -1.4 96 1013  0.6  754  304           
06 27.04.17 170 (Ю) 2-4{04}  19000 м    9/5 1500 м верхняя 
[Sc|Cs]
+1.4 -0.3 88 +1  1013.3  0.4  754  302  -1.2        влажная 
09 27.04.17 170 (Ю) 2-4{05}  19000 м    9/4 1000 м верхняя 
[Sc|Cs]
+6.4 +1.1 69 +6  1013.6  0.4  754  296           
12 27.04.17 240 (ЮЗ) 3-6{07}  20000 м    9/8 1000 м средняя 
[Cu Sc|Ac As]
+8.8 +0 54 +8  1013.3  -0.2  754  294           
15 27.04.17 240 (ЮЗ) 3-6{08}  18000 м    9/6 1500 м средняя 
[Cu Sc|Ac As]
+9.8 -1.9 44 +9  1014.2  0.9  755  293           
18 27.04.17 200 (Ю) 1-3{06}  12000 м    9/0 средняя 
[Ac As]
+8.1 +0 57 +9  1015.1  0.8  756  295    +10.6       
21 27.04.17 250 (З) 2-3{03}  20000 м    6/0 средняя 
[Ac trans]
+5.9 -0.7 63 +6  1016.5  1.4  757  298           
00 28.04.17 260 (З) 1-2{04}  18000 м    6/0 средняя 
[Sc|Ac trans]
+2.3 -1 79 +3  1018.1  1.5  758  303           
03 28.04.17 тихо () -0{03}  10 км    8/0 верхняя 
[Cs]
+0.2 -0.9 92 1018.5  0.3  758  305           
06 28.04.17 тихо () -2{02}  19000 м    8/0 верхняя 
[Cs]
+4.6 +1.3 79 +5  1019.4  759  300  -0.4        влажная 
09 28.04.17 080 (В) 3-5{06}  20000 м    9/0 верхняя 
[Cs]
+9.4 -0.7 49 +9  1018.6  -0.6  758  295           
12 28.04.17 100 (В) 5-9{09}  20000 м    10/6 1500 м средняя 
[Sc|Ac As]
+9.7 -1.4 46 +8  1017.6  -1  758  295           
15 28.04.17 090 (В) 4-7{11}  20000 м  слаб. дождь{ливн. осадки}  10/4 1500 м средняя 
[Sc|As op]
+6.5 +2.4 75 +5  1017  -0.7  757  297           
18 28.04.17 060 (СВ) 4-8{08}  8000 м  слаб. дождь{ливн. осадки}  10/10 420 м 
[Frnb|Ns]
+4.7 +3.5 92 +3  1015.8  -1.3  756  298    +10.1     
21 28.04.17 060 (СВ) 6-10{11}  20000 м  слаб. дождь  10/10 400 м 
[Frnb|Ns]
+4.1 +2.9 92 +1  1013.2  -2.5  754  298           
00 29.04.17 070 (В) 5-7{13}  20000 м  слаб. дождь  10/10 360 м 
[Frnb|Ns]
+3.9 +2.9 93 +2  1011.2  -2  753  299         
03 29.04.17 070 (В) 5-8{12}  19000 м  слаб. дождь  10/10 360 м 
[Frnb|Ns]
+3.5 +2.7 94 +1  1008.3  -1.2  750  297           
Время (UTC), дата Ветер
(°,м/с) 
Видим.   Явления Облачность Т
(°С)
Тd
(°С)
f(%) Тe
(°С)
Pmin
(гПа)
dP
(гПа)
Po
(мм)
O2
(г/м3)
Тmin Tmax R s Состояние
почвы

Для получения пояснительной информации подведите курсор к названию столбца.

ПОГОДА в Бирзаи - архив

Всё, что Вы хотите узнать о погоде в Бирзаи - удобно и подробно!

Выберите нужную дату (начиная с 1 января 2015* года) и нажмите кнопку "Найти".
Будут отображены архивные сводки погоды по пункту Бирзаи, начиная с указанной даты.


Отображать данные в формате CSV (для использования в таблицах Excel)


Внимание! Наш архив погоды предназначен исключительно для личного некоммерческого использования в познавательных целях. Если Вам необходимы официальные справки о состоянии погоды (для производственных, юридических, коммерческих и т.п. целей), обращайтесь в органы Росгидромета.

*Примечание: данная дата относится к архиву по метеостанциям СССР (Россия, СНГ, Балтия).
Архив по метеостанциям Зарубежной Европы и Азии (кроме Китая) хранится 10 дней, по другим регионам земного шара (Китай, Африка, Америка, Австралия, Океания) - 1 день.

Бирзаи - район местоположения метеостанции


Название, широта, долгота, высота метеостанции:
Бирзаи 56.2°ш. 24.8°д. 62 м над ур. моря [Литва]

Дополнительная информация

В oтличие oт бoльшинства пoгoдных сайтoв мы публикуем пoдрoбную метеoинфoрмацию в детальнoм прoфессиoнальнoм фoрмате.

Характеристики температуры и влажнoсти вoздуха измеряются на высoте 2 м в тени вдали oт зданий и деревьев.
Скoрoсть ветра измеряется на высoте 10 м (на урoвне рoста челoвека скoрoсть ветра ниже в 1.5-2 раза). Если метеoстанция нахoдится в гoрoде или в лесу, тo скoрoсть ветра занижена на 2-4 м/с пo сравнению с oткрытым местoм. Скoрoсть ветра над акватoриями крупных рек и oзёр, а также на вершинах хoлмoв на 2-5 м/с выше, чем в oбычных услoвиях.
Атмoсфернoе давление в разных тoчках местнoсти мoжет значительнo oтличаться oт давления на метеoстанции, в зависимoсти oт услoвий рельефа (при пoдъёме на 10 м давление пoнижается примернo на 1 мм рт.ст.).